Time,TemperatureF,DewpointF,PressureIn,WindDirection,WindDirectionDegrees,WindSpeedMPH,WindSpeedGustMPH,Humidity,HourlyPrecipIn,Conditions,Clouds,dailyrainin,SolarRadiationWatts/m^2,SoftwareType,DateUTC
2013-02-26 00:01:00,75.0,55.0,-100.00,WSW,239,5.0,15.0,49,0.00,,,0.00,0.000000,,2013-02-26 10:01:00,
2013-02-26 00:11:00,75.0,55.0,-100.00,WSW,239,5.0,15.0,49,0.00,,,0.00,0.000000,,2013-02-26 10:11:00,
2013-02-26 00:21:00,75.0,55.0,-100.00,WSW,239,5.0,15.0,49,0.00,,,0.00,0.000000,,2013-02-26 10:21:00,
2013-02-26 00:42:00,75.0,49.0,-100.00,ENE,67,9.0,37.0,40,0.00,,,0.00,0.000000,,2013-02-26 10:42:00,
2013-02-26 00:52:00,75.0,49.0,-100.00,ENE,67,9.0,37.0,40,0.00,,,0.00,0.000000,,2013-02-26 10:52:00,
2013-02-26 01:01:00,75.0,49.0,-100.00,ENE,67,9.0,37.0,40,0.00,,,0.00,0.000000,,2013-02-26 11:01:00,
2013-02-26 01:11:00,75.0,49.0,-100.00,ENE,67,9.0,37.0,40,0.00,,,0.00,0.000000,,2013-02-26 11:11:00,
2013-02-26 01:21:00,75.0,49.0,-100.00,ENE,67,9.0,37.0,40,0.00,,,0.00,0.000000,,2013-02-26 11:21:00,
2013-02-26 01:42:00,75.0,46.0,-100.00,East,87,9.0,29.0,36,0.00,,,0.00,0.000000,,2013-02-26 11:42:00,
2013-02-26 01:52:00,75.0,46.0,-100.00,East,87,9.0,29.0,36,0.00,,,0.00,0.000000,,2013-02-26 11:52:00,
2013-02-26 02:01:00,75.0,46.0,-100.00,East,87,9.0,29.0,36,0.00,,,0.00,0.000000,,2013-02-26 12:01:00,
2013-02-26 02:11:00,75.0,46.0,-100.00,East,87,9.0,29.0,36,0.00,,,0.00,0.000000,,2013-02-26 12:11:00,
2013-02-26 02:21:00,75.0,46.0,-100.00,East,87,9.0,29.0,36,0.00,,,0.00,0.000000,,2013-02-26 12:21:00,
2013-02-26 02:42:00,74.0,50.0,-100.00,ENE,69,10.0,29.0,43,0.00,,,0.00,0.000000,,2013-02-26 12:42:00,
2013-02-26 02:53:00,74.0,50.0,-100.00,ENE,69,10.0,29.0,43,0.00,,,0.00,0.000000,,2013-02-26 12:53:00,
2013-02-26 03:01:00,74.0,50.0,-100.00,ENE,69,10.0,29.0,43,0.00,,,0.00,0.000000,,2013-02-26 13:01:00,
2013-02-26 03:11:00,74.0,50.0,-100.00,ENE,69,10.0,29.0,43,0.00,,,0.00,0.000000,,2013-02-26 13:11:00,
2013-02-26 03:21:00,74.0,50.0,-100.00,ENE,69,10.0,29.0,43,0.00,,,0.00,0.000000,,2013-02-26 13:21:00,
2013-02-26 03:42:00,73.0,46.0,-100.00,East,96,11.0,30.0,38,0.00,,,0.00,0.000000,,2013-02-26 13:42:00,
2013-02-26 03:52:00,73.0,46.0,-100.00,East,96,11.0,30.0,38,0.00,,,0.00,0.000000,,2013-02-26 13:52:00,
2013-02-26 04:01:00,73.0,46.0,-100.00,East,96,11.0,30.0,38,0.00,,,0.00,0.000000,,2013-02-26 14:01:00,
2013-02-26 04:11:00,73.0,46.0,-100.00,East,96,11.0,30.0,38,0.00,,,0.00,0.000000,,2013-02-26 14:11:00,
2013-02-26 04:21:00,73.0,46.0,-100.00,East,96,11.0,30.0,38,0.00,,,0.00,0.000000,,2013-02-26 14:21:00,
2013-02-26 04:42:00,72.0,47.0,-100.00,East,97,7.0,31.0,41,0.00,,,0.00,0.000000,,2013-02-26 14:42:00,
2013-02-26 04:52:00,72.0,47.0,-100.00,East,97,7.0,31.0,41,0.00,,,0.00,0.000000,,2013-02-26 14:52:00,
2013-02-26 05:02:00,72.0,47.0,-100.00,East,97,7.0,31.0,41,0.00,,,0.00,0.000000,,2013-02-26 15:02:00,
2013-02-26 05:11:00,72.0,47.0,-100.00,East,97,7.0,31.0,41,0.00,,,0.00,0.000000,,2013-02-26 15:11:00,
2013-02-26 05:21:00,72.0,47.0,-100.00,East,97,7.0,31.0,41,0.00,,,0.00,0.000000,,2013-02-26 15:21:00,
2013-02-26 05:42:00,73.0,43.0,-100.00,East,90,6.0,20.0,34,0.00,,,0.00,0.000000,,2013-02-26 15:42:00,
2013-02-26 05:52:00,73.0,43.0,-100.00,East,90,6.0,20.0,34,0.00,,,0.00,0.000000,,2013-02-26 15:52:00,
2013-02-26 06:01:00,73.0,43.0,-100.00,East,90,6.0,20.0,34,0.00,,,0.00,0.000000,,2013-02-26 16:01:00,
2013-02-26 06:11:00,73.0,43.0,-100.00,East,90,6.0,20.0,34,0.00,,,0.00,0.000000,,2013-02-26 16:11:00,
2013-02-26 06:22:00,73.0,43.0,-100.00,East,90,6.0,20.0,34,0.00,,,0.00,0.000000,,2013-02-26 16:22:00,
2013-02-26 06:42:00,73.0,44.0,-100.00,ESE,110,10.0,31.0,36,0.00,,,0.00,0.000000,,2013-02-26 16:42:00,
2013-02-26 06:52:00,73.0,44.0,-100.00,ESE,110,10.0,31.0,36,0.00,,,0.00,0.000000,,2013-02-26 16:52:00,
2013-02-26 07:01:00,73.0,44.0,-100.00,ESE,110,10.0,31.0,36,0.00,,,0.00,0.000000,,2013-02-26 17:01:00,
2013-02-26 07:11:00,73.0,44.0,-100.00,ESE,110,10.0,31.0,36,0.00,,,0.00,0.000000,,2013-02-26 17:11:00,
2013-02-26 07:21:00,73.0,44.0,-100.00,ESE,110,10.0,31.0,36,0.00,,,0.00,0.000000,,2013-02-26 17:21:00,
2013-02-26 07:42:00,73.0,50.0,-100.00,ESE,117,8.0,31.0,45,0.00,,,0.00,2.000000,,2013-02-26 17:42:00,
2013-02-26 07:52:00,73.0,50.0,-100.00,ESE,117,8.0,31.0,45,0.00,,,0.00,2.000000,,2013-02-26 17:52:00,
2013-02-26 08:01:00,73.0,50.0,-100.00,ESE,117,8.0,31.0,45,0.00,,,0.00,2.000000,,2013-02-26 18:01:00,
2013-02-26 08:12:00,73.0,50.0,-100.00,ESE,117,8.0,31.0,45,0.00,,,0.00,2.000000,,2013-02-26 18:12:00,
2013-02-26 08:21:00,73.0,50.0,-100.00,ESE,117,8.0,31.0,45,0.00,,,0.00,2.000000,,2013-02-26 18:21:00,
2013-02-26 08:42:00,75.0,41.0,-100.00,ENE,67,9.0,31.0,30,0.00,,,0.00,143.000000,,2013-02-26 18:42:00,
2013-02-26 08:52:00,75.0,41.0,-100.00,ENE,67,9.0,31.0,30,0.00,,,0.00,143.000000,,2013-02-26 18:52:00,
2013-02-26 09:01:00,75.0,41.0,-100.00,ENE,67,9.0,31.0,30,0.00,,,0.00,143.000000,,2013-02-26 19:01:00,
2013-02-26 09:11:00,75.0,41.0,-100.00,ENE,67,9.0,31.0,30,0.00,,,0.00,143.000000,,2013-02-26 19:11:00,
2013-02-26 09:21:00,75.0,41.0,-100.00,ENE,67,9.0,31.0,30,0.00,,,0.00,143.000000,,2013-02-26 19:21:00,
2013-02-26 09:42:00,78.0,48.0,-100.00,ENE,60,10.0,45.0,35,0.00,,,0.00,391.000000,,2013-02-26 19:42:00,
2013-02-26 09:52:00,78.0,48.0,-100.00,ENE,60,10.0,45.0,35,0.00,,,0.00,391.000000,,2013-02-26 19:52:00,
2013-02-26 10:01:00,78.0,48.0,-100.00,ENE,60,10.0,45.0,35,0.00,,,0.00,391.000000,,2013-02-26 20:01:00,
2013-02-26 10:11:00,78.0,48.0,-100.00,ENE,60,10.0,45.0,35,0.00,,,0.00,391.000000,,2013-02-26 20:11:00,
2013-02-26 10:21:00,78.0,48.0,-100.00,ENE,60,10.0,45.0,35,0.00,,,0.00,391.000000,,2013-02-26 20:21:00,
2013-02-26 12:42:00,80.0,56.0,-100.00,West,263,9.0,22.0,44,-99.99,,,0.00,907.000000,,2013-02-26 22:42:00,
2013-02-26 12:52:00,80.0,56.0,-100.00,West,263,9.0,22.0,44,-99.99,,,0.00,907.000000,,2013-02-26 22:52:00,
2013-02-26 13:01:00,80.0,56.0,-100.00,West,263,9.0,22.0,44,-99.99,,,0.00,907.000000,,2013-02-26 23:01:00,
2013-02-26 13:11:00,80.0,56.0,-100.00,West,263,9.0,22.0,44,-99.99,,,0.00,907.000000,,2013-02-26 23:11:00,
2013-02-26 13:21:00,80.0,56.0,-100.00,West,263,9.0,22.0,44,-99.99,,,0.00,907.000000,,2013-02-26 23:21:00,
2013-02-26 13:42:00,81.0,54.0,-100.00,West,268,8.0,17.0,40,0.00,,,0.00,950.000000,,2013-02-26 23:42:00,
2013-02-26 13:52:00,81.0,54.0,-100.00,West,268,8.0,17.0,40,0.00,,,0.00,950.000000,,2013-02-26 23:52:00,
2013-02-26 14:01:00,81.0,54.0,-100.00,West,268,8.0,17.0,40,0.00,,,0.00,950.000000,,2013-02-27 00:01:00,
2013-02-26 14:11:00,81.0,54.0,-100.00,West,268,8.0,17.0,40,0.00,,,0.00,950.000000,,2013-02-27 00:11:00,
2013-02-26 14:21:00,81.0,54.0,-100.00,West,268,8.0,17.0,40,0.00,,,0.00,950.000000,,2013-02-27 00:21:00,
2013-02-26 14:42:00,80.0,64.0,-100.00,West,259,9.0,19.0,59,0.00,,,0.00,909.000000,,2013-02-27 00:42:00,
2013-02-26 14:52:00,80.0,64.0,-100.00,West,259,9.0,19.0,59,0.00,,,0.00,909.000000,,2013-02-27 00:52:00,
2013-02-26 15:01:00,80.0,64.0,-100.00,West,259,9.0,19.0,59,0.00,,,0.00,909.000000,,2013-02-27 01:01:00,
2013-02-26 15:11:00,80.0,64.0,-100.00,West,259,9.0,19.0,59,0.00,,,0.00,909.000000,,2013-02-27 01:11:00,
2013-02-26 15:21:00,80.0,64.0,-100.00,West,259,9.0,19.0,59,0.00,,,0.00,909.000000,,2013-02-27 01:21:00,
2013-02-26 15:42:00,78.0,63.0,-100.00,WSW,258,9.0,18.0,60,0.00,,,0.00,790.000000,,2013-02-27 01:42:00,
2013-02-26 15:52:00,78.0,63.0,-100.00,WSW,258,9.0,18.0,60,0.00,,,0.00,790.000000,,2013-02-27 01:52:00,
2013-02-26 16:01:00,78.0,63.0,-100.00,WSW,258,9.0,18.0,60,0.00,,,0.00,790.000000,,2013-02-27 02:01:00,
2013-02-26 16:13:00,78.0,63.0,-100.00,WSW,258,9.0,18.0,60,0.00,,,0.00,790.000000,,2013-02-27 02:13:00,
2013-02-26 16:21:00,78.0,63.0,-100.00,WSW,258,9.0,18.0,60,0.00,,,0.00,790.000000,,2013-02-27 02:21:00,
2013-02-26 16:42:00,78.0,64.0,-100.00,WSW,253,8.0,16.0,62,0.00,,,0.00,625.000000,,2013-02-27 02:42:00,
2013-02-26 16:52:00,78.0,64.0,-100.00,WSW,253,8.0,16.0,62,0.00,,,0.00,625.000000,,2013-02-27 02:52:00,
2013-02-26 17:01:00,78.0,64.0,-100.00,WSW,253,8.0,16.0,62,0.00,,,0.00,625.000000,,2013-02-27 03:01:00,
2013-02-26 17:11:00,78.0,64.0,-100.00,WSW,253,8.0,16.0,62,0.00,,,0.00,625.000000,,2013-02-27 03:11:00,
2013-02-26 17:21:00,78.0,64.0,-100.00,WSW,253,8.0,16.0,62,0.00,,,0.00,625.000000,,2013-02-27 03:21:00,
2013-02-26 17:42:00,76.0,62.0,-100.00,WSW,256,6.0,15.0,63,0.00,,,0.00,204.000000,,2013-02-27 03:42:00,
2013-02-26 17:52:00,76.0,62.0,-100.00,WSW,256,6.0,15.0,63,0.00,,,0.00,204.000000,,2013-02-27 03:52:00,
2013-02-26 18:01:00,76.0,62.0,-100.00,WSW,256,6.0,15.0,63,0.00,,,0.00,204.000000,,2013-02-27 04:01:00,
2013-02-26 18:11:00,76.0,62.0,-100.00,WSW,256,6.0,15.0,63,0.00,,,0.00,204.000000,,2013-02-27 04:11:00,
2013-02-26 18:21:00,76.0,62.0,-100.00,WSW,256,6.0,15.0,63,0.00,,,0.00,204.000000,,2013-02-27 04:21:00,
2013-02-26 18:42:00,75.0,58.0,-100.00,West,260,7.0,18.0,55,0.00,,,0.00,45.000000,,2013-02-27 04:42:00,
2013-02-26 18:52:00,75.0,58.0,-100.00,West,260,7.0,18.0,55,0.00,,,0.00,45.000000,,2013-02-27 04:52:00,
2013-02-26 19:01:00,75.0,58.0,-100.00,West,260,7.0,18.0,55,0.00,,,0.00,45.000000,,2013-02-27 05:01:00,
2013-02-26 19:11:00,75.0,58.0,-100.00,West,260,7.0,18.0,55,0.00,,,0.00,45.000000,,2013-02-27 05:11:00,
2013-02-26 19:21:00,75.0,58.0,-100.00,West,260,7.0,18.0,55,0.00,,,0.00,45.000000,,2013-02-27 05:21:00,
2013-02-26 19:42:00,75.0,55.0,-100.00,SW,220,5.0,18.0,50,0.00,,,0.00,8.000000,,2013-02-27 05:42:00,
2013-02-26 19:52:00,75.0,55.0,-100.00,SW,220,5.0,18.0,50,0.00,,,0.00,8.000000,,2013-02-27 05:52:00,
2013-02-26 20:02:00,75.0,55.0,-100.00,SW,220,5.0,18.0,50,0.00,,,0.00,8.000000,,2013-02-27 06:02:00,
2013-02-26 20:11:00,75.0,55.0,-100.00,SW,220,5.0,18.0,50,0.00,,,0.00,8.000000,,2013-02-27 06:11:00,
2013-02-26 20:21:00,75.0,55.0,-100.00,SW,220,5.0,18.0,50,0.00,,,0.00,8.000000,,2013-02-27 06:21:00,
2013-02-26 20:42:00,74.0,56.0,-100.00,East,94,11.0,31.0,54,0.00,,,0.00,0.000000,,2013-02-27 06:42:00,
2013-02-26 20:52:00,74.0,56.0,-100.00,East,94,11.0,31.0,54,0.00,,,0.00,0.000000,,2013-02-27 06:52:00,
2013-02-26 21:01:00,74.0,56.0,-100.00,East,94,11.0,31.0,54,0.00,,,0.00,0.000000,,2013-02-27 07:01:00,
2013-02-26 21:12:00,74.0,56.0,-100.00,East,94,11.0,31.0,54,0.00,,,0.00,0.000000,,2013-02-27 07:12:00,
2013-02-26 21:21:00,74.0,56.0,-100.00,East,94,11.0,31.0,54,0.00,,,0.00,0.000000,,2013-02-27 07:21:00,
2013-02-26 21:42:00,73.0,55.0,-100.00,East,99,13.0,27.0,54,0.00,,,0.00,0.000000,,2013-02-27 07:42:00,
2013-02-26 21:52:00,73.0,55.0,-100.00,East,99,13.0,27.0,54,0.00,,,0.00,0.000000,,2013-02-27 07:52:00,
2013-02-26 22:01:00,73.0,55.0,-100.00,East,99,13.0,27.0,54,0.00,,,0.00,0.000000,,2013-02-27 08:01:00,
2013-02-26 22:11:00,73.0,55.0,-100.00,East,99,13.0,27.0,54,0.00,,,0.00,0.000000,,2013-02-27 08:11:00,
2013-02-26 22:21:00,73.0,55.0,-100.00,East,99,13.0,27.0,54,0.00,,,0.00,0.000000,,2013-02-27 08:21:00,
2013-02-26 22:42:00,72.0,54.0,-100.00,East,83,12.0,28.0,54,0.00,,,0.00,0.000000,,2013-02-27 08:42:00,
2013-02-26 22:52:00,72.0,54.0,-100.00,East,83,12.0,28.0,54,0.00,,,0.00,0.000000,,2013-02-27 08:52:00,
2013-02-26 23:01:00,72.0,54.0,-100.00,East,83,12.0,28.0,54,0.00,,,0.00,0.000000,,2013-02-27 09:01:00,
2013-02-26 23:11:00,72.0,54.0,-100.00,East,83,12.0,28.0,54,0.00,,,0.00,0.000000,,2013-02-27 09:11:00,
2013-02-26 23:21:00,72.0,54.0,-100.00,East,83,12.0,28.0,54,0.00,,,0.00,0.000000,,2013-02-27 09:21:00,
2013-02-26 23:42:00,72.0,55.0,-100.00,ENE,76,19.0,41.0,55,0.00,,,0.00,0.000000,,2013-02-27 09:42:00,
2013-02-26 23:52:00,72.0,55.0,-100.00,ENE,76,19.0,41.0,55,0.00,,,0.00,0.000000,,2013-02-27 09:52:00,